Theta_e
311 310 306 302 302 311 303 302 303 304 303 304 305 307 312 317 318 316 320 314 317 323 324 325 325 325 330 331 329 320 317 321 323 325 324 322 318 323 326 328 331 332 331 329 329
312 310 309 304 302 311 311 304 309 310 304 304 304 305 306 310 316 317 318 317 320 320 326 326 325 326 330 330 328 324 320 320 319 320 320 320 321 320 327 329 330 331 331 330 328
311 311 309 307 302 307 312 312 310 312 306 304 303 304 306 310 312 309 312 317 317 321 322 324 326 330 329 327 325 319 321 318 319 320 322 322 324 325 323 326 329 330 331 330 329
310 310 310 309 304 304 309 309 311 313 311 304 304 304 307 310 303 314 311 309 317 323 324 326 325 328 325 325 324 324 324 320 323 324 325 324 324 325 320 321 325 328 330 330 330
310 310 310 309 308 303 307 309 310 312 311 304 305 306 310 313 305 320 319 314 318 323 323 324 324 327 325 323 323 323 324 324 325 325 325 325 324 323 323 328 320 322 330 331 330
310 309 311 308 309 305 303 307 310 313 312 305 305 307 310 311 305 317 319 319 317 322 322 322 324 326 326 323 322 324 324 324 324 324 324 324 324 323 325 326 324 321 328 330 330
312 310 310 309 309 307 303 305 309 311 311 307 306 308 312 308 309 306 315 317 319 320 321 320 322 322 324 321 324 324 325 322 323 323 323 323 323 323 324 324 320 318 326 330 329
313 311 309 310 308 308 304 303 306 307 308 307 307 308 310 307 307 314 308 313 321 321 319 319 319 322 323 322 322 324 324 327 324 324 323 323 325 322 325 322 319 319 324 329 330
315 312 310 310 308 308 305 303 303 303 306 307 308 311 309 308 307 313 316 311 317 322 319 320 320 321 321 323 324 324 326 326 325 324 320 322 323 321 322 322 322 321 319 325 328
316 314 311 309 308 308 306 303 302 305 309 309 309 310 309 310 306 306 317 317 319 322 320 319 320 319 320 322 321 320 325 323 325 323 321 319 319 320 321 320 318 320 318 322 326
314 314 312 310 309 308 306 305 308 309 309 308 309 308 311 310 311 310 309 312 317 318 319 319 320 320 320 320 319 318 321 321 321 322 323 323 322 321 321 321 321 322 320 319 321
311 315 313 311 309 309 306 306 306 305 307 308 308 308 311 311 312 312 313 313 315 317 317 318 319 318 319 319 321 322 322 322 322 322 323 322 323 322 322 321 322 323 322 318 320
310 314 314 312 309 309 307 305 305 305 305 307 308 308 312 312 312 312 316 315 313 312 316 317 316 315 318 320 322 323 324 324 325 324 324 324 325 324 322 322 323 323 323 320 318
309 310 314 313 309 310 307 305 305 305 297 303 307 308 310 311 309 312 313 314 314 316 314 313 313 314 317 318 318 323 321 322 324 324 329 325 328 323 324 323 321 322 323 322 319
310 310 314 314 311 310 307 305 305 303 300 301 306 306 309 309 308 312 314 314 314 313 315 314 315 314 315 315 318 319 320 321 322 323 324 326 329 325 322 323 322 321 321 322 324
307 310 313 313 311 309 308 304 305 301 300 299 306 308 309 308 308 312 313 313 313 313 312 311 310 312 314 314 314 317 320 321 322 322 321 321 326 325 323 322 322 321 322 323 323
306 309 311 312 311 309 307 305 301 302 298 304 306 307 307 308 309 308 311 313 315 314 313 310 311 309 312 316 316 318 319 321 323 323 326 320 324 324 320 319 320 322 323 323 323
305 304 309 312 310 308 305 305 303 297 298 304 305 306 306 306 307 308 308 309 310 310 310 312 312 311 309 313 316 319 319 322 325 324 322 318 326 324 320 321 321 323 323 324 324
304 305 305 310 307 306 303 305 301 300 299 306 306 306 306 306 305 309 308 307 307 309 310 310 311 309 310 312 314 317 319 317 321 311 318 318 314 313 314 317 319 320 321 321 322
302 305 306 307 305 305 303 304 301 299 305 305 302 306 305 306 305 307 309 306 307 308 308 312 313 310 311 311 311 316 315 318 319 321 323 318 316 319 317 316 317 315 317 320 321
303 303 305 307 305 304 305 305 298 300 306 304 304 305 305 306 306 307 306 307 307 308 308 309 313 308 311 313 317 315 318 318 319 320 319 318 317 312 316 317 315 314 316 316 316
300 302 302 304 304 303 305 302 300 303 304 302 302 301 305 305 308 306 306 305 308 308 309 309 312 313 312 310 309 314 316 317 321 320 317 312 318 310 305 307 306 307 310 312 314
300 300 302 303 305 304 303 302 302 305 303 302 304 304 305 307 308 308 308 309 309 307 308 310 312 312 311 311 309 312 315 316 317 314 319 321 320 309 304 302 305 306 309 311 314
300 301 303 303 303 304 304 303 304 304 301 301 302 304 305 307 304 308 308 307 309 309 310 309 312 309 310 309 309 313 314 315 316 319 319 319 319 316 314 308 306 308 311 309 311
300 301 301 303 302 304 303 302 304 304 301 302 302 305 305 306 305 306 307 306 305 309 311 312 311 309 312 312 308 311 310 313 316 317 318 317 317 316 316 316 314 309 309 309 309
298 299 300 301 301 303 304 303 304 301 301 302 304 304 301 306 303 304 306 304 304 307 308 309 310 307 306 307 307 309 310 310 314 315 316 316 317 315 311 313 314 313 309 308 309
299 299 301 303 302 303 304 303 303 302 301 301 302 303 301 301 302 304 304 303 304 305 306 308 308 308 308 308 311 312 311 311 312 313 314 315 315 314 312 308 309 311 313 309 310
Wind_Speed
25 23 23 24 24 22 22 22 21 21 19 17 18 19 18 15 13 13 16 14 19 8 11 13 13 13 9 5 4 5 2 3 3 2 2 15 10 8 4 7 15 13 7 6 23
30 26 24 24 24 22 21 22 20 19 18 15 14 14 16 16 14 18 18 16 14 20 12 5 10 11 7 7 6 5 4 9 7 2 2 10 13 16 4 9 10 14 12 10 25
34 31 26 24 24 24 22 21 20 19 19 17 14 14 13 12 12 19 21 16 18 16 15 16 8 12 6 6 6 6 5 6 11 7 5 8 13 22 10 4 13 24 23 21 29
35 34 29 26 24 24 25 23 23 22 19 16 14 13 12 11 7 6 12 22 21 19 16 15 14 8 6 6 9 3 9 10 5 13 9 5 15 20 7 16 18 23 26 28 33
39 36 33 29 25 25 25 24 23 22 20 16 15 14 14 12 11 7 5 13 26 22 17 17 16 8 6 6 9 5 5 14 20 14 15 13 12 8 23 33 23 21 24 31 34
42 38 37 32 29 26 25 26 25 22 18 18 16 15 16 9 10 13 8 8 25 23 22 18 9 12 6 4 7 6 15 12 14 19 17 11 16 6 25 32 30 22 27 33 37
45 42 39 36 32 27 27 27 28 24 17 16 17 18 18 23 9 14 15 7 19 21 20 19 19 12 8 2 11 4 2 6 12 9 7 9 13 11 29 29 24 26 28 35 40
47 45 41 38 34 30 27 26 27 27 20 16 16 17 11 13 18 10 16 14 14 19 21 21 17 15 6 3 3 3 2 12 8 13 8 9 20 10 27 18 24 25 29 34 39
50 48 44 42 37 32 28 25 22 23 20 18 18 13 8 9 19 15 12 18 14 18 21 14 17 13 5 4 3 7 13 17 7 17 5 11 7 17 28 20 30 32 32 36 38
56 50 47 44 40 35 29 25 22 21 21 19 15 9 15 13 16 27 19 14 14 16 16 16 10 5 7 10 15 5 10 9 12 6 10 10 14 17 11 18 24 26 28 33 40
49 50 50 47 43 40 34 30 22 13 30 12 15 6 0 13 16 24 28 20 11 10 7 10 8 17 20 22 11 6 9 12 6 8 11 19 19 20 25 23 25 27 32 36 36
54 58 52 51 47 45 43 41 41 13 14 17 7 21 4 17 9 18 23 16 12 9 8 4 20 10 5 9 15 16 15 14 8 9 14 14 22 22 22 26 32 34 33 38 41
51 52 57 53 50 50 52 51 40 26 8 17 12 22 10 14 8 22 27 14 12 10 11 16 1 15 11 10 13 14 16 17 13 4 12 1 20 14 15 29 31 38 34 39 41
50 57 57 55 56 55 56 48 40 24 5 6 14 11 16 11 4 19 29 16 4 15 12 9 16 14 5 17 13 15 13 12 11 10 10 14 19 16 20 21 19 37 35 38 42
52 52 62 66 60 61 59 51 40 16 4 7 10 12 24 15 14 13 28 15 9 7 5 6 6 10 19 19 7 14 6 12 18 15 17 14 8 15 14 18 17 25 33 40 45
57 58 66 72 64 66 59 49 37 4 8 7 10 13 16 18 8 11 15 9 8 6 4 4 1 3 6 6 15 4 5 7 13 13 10 14 9 9 14 17 8 22 34 40 44
46 46 60 67 56 66 64 51 7 7 3 10 11 15 18 16 9 7 13 12 8 9 11 2 9 2 3 2 2 10 11 10 5 4 9 8 13 23 8 7 11 17 28 38 43
45 40 49 60 62 73 69 16 9 10 9 5 12 19 10 12 10 9 12 14 18 6 5 13 7 11 8 18 4 13 17 5 10 9 14 2 11 8 11 26 31 32 29 32 41
37 39 33 37 71 75 46 18 13 17 11 14 17 20 10 10 7 10 15 16 15 20 13 11 12 2 2 2 14 8 14 17 10 1 2 4 8 6 10 13 15 26 28 40 42
37 33 33 31 69 74 23 16 5 9 17 20 7 12 15 23 9 16 19 14 11 26 16 3 3 2 5 3 4 15 5 5 7 8 8 8 9 11 5 9 14 14 24 38 39
31 11 26 42 62 50 23 16 6 13 28 9 8 11 13 22 14 18 13 3 20 17 25 4 4 1 2 9 15 4 8 5 3 5 8 17 13 6 19 20 11 10 25 26 26
22 5 30 46 10 12 23 9 14 17 8 4 6 6 14 21 13 17 14 8 19 19 22 18 3 7 10 1 3 9 8 14 7 12 6 3 17 3 9 6 7 19 30 24 22
17 6 30 47 11 15 16 2 6 20 8 3 5 4 5 15 7 14 16 10 18 16 15 12 6 5 2 3 4 8 13 12 18 1 12 9 16 4 6 8 14 17 29 19 14
8 4 13 31 17 18 18 8 9 14 3 5 7 7 10 13 4 13 12 4 12 14 16 25 6 9 13 2 1 8 12 17 18 10 17 19 28 19 14 10 10 15 22 17 14
6 2 4 9 11 20 18 16 20 9 2 8 4 14 13 7 4 4 5 3 4 12 15 9 5 5 9 15 6 8 12 21 20 28 17 34 30 26 23 20 21 25 19 18 18
7 3 4 10 17 22 22 21 26 5 8 10 12 14 5 11 7 8 10 5 5 3 6 4 4 5 12 9 14 19 18 20 27 33 25 36 34 23 9 17 24 38 27 24 26
18 2 6 14 17 15 15 22 24 13 8 12 17 13 7 8 15 17 11 14 10 8 5 6 5 4 7 3 8 13 23 22 27 28 26 30 38 23 19 13 20 30 41 35 34
Wind_Direction
242 246 243 237 230 227 230 227 225 226 227 228 229 233 234 237 236 234 218 230 227 207 216 221 221 223 225 231 205 123 75 145 239 187 293 355 2 359 268 180 173 203 213 231 187
236 241 243 237 231 223 226 225 219 223 220 222 223 228 232 235 240 242 239 225 216 219 217 213 211 206 182 182 180 143 192 187 147 115 345 319 343 350 264 189 209 212 210 204 184
230 235 237 236 229 222 217 217 213 224 219 219 216 216 219 226 248 256 241 229 220 219 223 233 216 194 161 157 168 162 198 205 183 176 289 322 333 337 323 245 222 213 205 194 189
230 229 231 232 227 221 219 214 210 219 220 211 212 209 202 204 217 177 217 212 207 212 215 215 207 192 164 173 182 181 251 210 258 208 243 296 313 325 308 279 301 267 218 196 195
231 227 227 229 227 222 217 212 209 221 223 209 206 200 192 198 224 183 192 206 196 199 206 205 193 177 184 194 166 196 205 225 241 264 259 253 272 269 283 287 308 283 224 206 207
230 226 223 224 226 221 216 207 205 213 217 206 199 196 204 207 234 203 159 173 197 191 203 210 202 205 201 198 195 216 209 226 238 244 253 248 254 245 279 282 289 278 235 214 214
228 226 221 220 221 218 213 207 202 208 209 204 198 200 211 228 217 213 210 186 183 194 205 208 218 208 196 157 223 236 217 255 237 220 241 235 257 219 268 277 273 273 243 223 220
226 224 221 217 216 215 210 209 206 208 207 204 203 207 230 242 215 198 213 201 180 199 195 209 215 233 213 141 96 170 217 245 197 198 216 192 259 197 242 239 256 270 250 233 226
227 222 219 215 211 211 205 202 202 196 193 197 198 191 239 220 209 185 190 202 183 192 202 203 216 223 168 207 212 203 240 229 251 196 141 195 261 241 244 245 252 260 259 245 237
222 221 216 213 208 205 200 192 189 187 185 193 196 194 229 205 200 197 180 173 170 183 195 205 207 205 204 202 223 237 227 251 242 194 201 223 251 265 246 208 233 257 262 257 247
224 214 212 210 206 199 188 173 168 185 185 186 193 198 283 190 183 197 201 195 166 177 183 193 207 221 218 220 231 269 220 235 238 217 203 224 248 253 244 243 252 246 254 257 256
218 212 207 206 204 197 190 182 181 187 183 201 182 199 177 167 161 190 188 169 172 184 167 183 230 223 226 228 230 242 255 255 260 213 215 237 252 247 245 233 235 241 241 249 257
220 211 203 202 201 196 195 194 179 158 141 216 202 200 185 176 178 181 183 172 170 192 196 220 281 203 216 242 238 236 230 236 249 269 222 296 259 247 246 238 241 249 244 244 247
219 212 208 204 193 189 198 188 177 166 93 206 198 215 194 174 225 188 190 172 162 198 204 238 243 262 217 233 230 251 225 256 276 257 252 187 263 239 241 236 225 242 235 236 239
214 215 207 201 187 184 194 183 172 165 173 186 174 187 192 170 137 183 184 189 175 181 166 210 183 217 243 236 196 264 215 239 257 280 266 239 260 260 218 241 222 231 231 232 239
216 211 205 202 188 192 185 172 166 113 216 166 144 168 160 184 164 142 172 178 193 177 223 237 322 214 239 205 221 302 226 256 251 246 248 232 241 224 227 238 230 234 231 231 238
222 211 198 208 189 178 175 162 148 184 236 169 177 173 171 182 161 154 182 175 179 190 213 69 239 210 228 188 195 198 227 245 244 210 252 215 218 244 247 244 216 232 231 234 239
208 214 202 194 177 169 164 166 171 189 187 135 150 162 169 145 198 168 154 201 215 205 169 214 250 186 181 215 203 213 215 228 248 233 242 126 236 252 221 241 238 241 237 241 236
208 212 210 195 175 169 164 186 173 173 163 140 128 161 175 187 148 160 189 199 203 205 190 198 236 185 286 138 191 194 220 236 276 342 270 240 284 274 239 246 241 240 241 242 241
199 192 204 198 169 162 165 181 169 182 129 141 137 174 178 179 147 186 179 206 207 200 204 224 264 189 159 132 240 223 148 188 199 257 254 250 253 242 310 258 246 250 249 248 244
195 168 185 169 167 168 174 179 134 197 146 145 144 156 177 179 181 187 193 252 191 183 205 145 225 135 114 209 199 169 211 208 227 211 246 261 265 213 218 240 264 268 266 270 264
167 166 183 168 167 185 175 145 143 175 139 113 101 111 168 171 172 184 201 195 185 158 191 202 200 232 205 5 308 247 231 213 218 216 224 267 256 251 249 271 265 268 268 273 275
141 110 176 185 184 184 166 159 124 162 146 149 116 138 151 163 158 184 188 196 176 175 177 166 208 235 259 238 213 223 216 216 226 332 221 232 255 191 269 271 260 277 293 277 266
138 151 168 183 189 171 159 166 137 157 82 97 111 118 115 161 11 176 166 154 178 178 171 166 187 213 222 157 133 206 214 224 237 252 256 249 261 282 283 299 298 282 293 292 250
141 169 236 168 171 175 169 162 152 156 128 133 17 168 149 142 88 150 112 115 172 196 194 187 214 203 251 278 310 267 250 217 213 232 230 252 246 251 253 260 275 288 283 270 260
131 176 142 152 145 163 182 179 166 115 149 170 158 153 101 155 158 161 142 170 179 129 153 167 223 187 271 244 234 269 263 243 225 230 234 249 259 245 279 285 253 264 274 260 252
203 242 144 161 166 157 181 176 170 139 25 120 134 133 88 141 149 163 147 152 152 141 154 160 172 194 262 230 262 252 244 233 234 232 225 244 244 261 242 232 239 252 257 255 251